Location: Cartignies
(50.0929°N, 3.8447°E)
Time: 14:58:21
(UTC+00:00)

Cosmos 1340 Rocket - Pass Details

Date: 12 January 2026
Orbit: 486 x 515 km, 81.2° (Epoch: 16 February)

Event Time Altitude Azimuth Distance (km) Brightness Sun altitude
Rises 18:36:34 0° 346° (NNW) 2,619 6.4 -23.2°
Reaches altitude 10° 18:38:41 10° 346° (NNW) 1,734 5.4 -23.6°
Enters shadow 18:40:12 23° 344° (NNW) 1,127 4.5 -23.8°
